Year,Month,Day,Hour,Minute,Value (Times are PST for temperature in C)
2016,08,18,00,00,17.20
2016,08,18,00,01,17.10
2016,08,18,00,02,17.10
2016,08,18,00,03,17.10
2016,08,18,00,04,17.10
2016,08,18,00,05,17.00
2016,08,18,00,06,17.00
2016,08,18,00,07,17.00
2016,08,18,00,08,16.90
2016,08,18,00,09,16.90
2016,08,18,00,10,16.90
2016,08,18,00,11,16.90
2016,08,18,00,12,16.90
2016,08,18,00,13,16.90
2016,08,18,00,14,16.90
2016,08,18,00,15,16.80
2016,08,18,00,16,16.80
2016,08,18,00,17,16.80
2016,08,18,00,18,16.80
2016,08,18,00,19,16.80
2016,08,18,00,20,16.80
2016,08,18,00,21,16.80
2016,08,18,00,22,16.70
2016,08,18,00,23,16.70
2016,08,18,00,24,16.70
2016,08,18,00,25,16.70
2016,08,18,00,26,16.70
2016,08,18,00,27,16.70
2016,08,18,00,28,16.70
2016,08,18,00,29,16.70
2016,08,18,00,30,16.60
2016,08,18,00,31,16.60
2016,08,18,00,32,16.60
2016,08,18,00,33,16.60
2016,08,18,00,34,16.60
2016,08,18,00,35,16.60
2016,08,18,00,36,16.60
2016,08,18,00,37,16.50
2016,08,18,00,38,16.50
2016,08,18,00,39,16.50
2016,08,18,00,40,16.50
2016,08,18,00,41,16.50
2016,08,18,00,42,16.40
2016,08,18,00,43,16.40
2016,08,18,00,44,16.40
2016,08,18,00,45,16.40
2016,08,18,00,46,16.40
2016,08,18,00,47,16.30
2016,08,18,00,48,16.30
2016,08,18,00,49,16.30
2016,08,18,00,50,16.30
2016,08,18,00,51,16.30
2016,08,18,00,52,16.30
2016,08,18,00,53,16.30
2016,08,18,00,54,16.30
2016,08,18,00,55,16.30
2016,08,18,00,56,16.30
2016,08,18,00,57,16.20
2016,08,18,00,58,16.20
2016,08,18,00,59,16.20
2016,08,18,01,00,16.20
2016,08,18,01,01,16.20
2016,08,18,01,02,16.20
2016,08,18,01,03,16.20
2016,08,18,01,04,16.10
2016,08,18,01,05,16.10
2016,08,18,01,06,16.10
2016,08,18,01,07,16.10
2016,08,18,01,08,16.10
2016,08,18,01,09,16.10
2016,08,18,01,10,16.10
2016,08,18,01,11,16.10
2016,08,18,01,12,16.00
2016,08,18,01,13,16.00
2016,08,18,01,14,16.00
2016,08,18,01,15,16.00
2016,08,18,01,16,16.00
2016,08,18,01,17,16.00
2016,08,18,01,18,16.00
2016,08,18,01,19,16.00
2016,08,18,01,20,16.00
2016,08,18,01,21,16.00
2016,08,18,01,22,16.00
2016,08,18,01,23,16.00
2016,08,18,01,24,16.00
2016,08,18,01,25,16.00
2016,08,18,01,26,16.00
2016,08,18,01,27,16.00
2016,08,18,01,28,16.00
2016,08,18,01,29,16.00
2016,08,18,01,30,16.00
2016,08,18,01,31,15.90
2016,08,18,01,32,15.90
2016,08,18,01,33,15.90
2016,08,18,01,34,15.90
2016,08,18,01,35,15.90
2016,08,18,01,36,15.80
2016,08,18,01,37,15.80
2016,08,18,01,38,15.80
2016,08,18,01,39,15.80
2016,08,18,01,40,15.80
2016,08,18,01,41,15.80
2016,08,18,01,42,15.80
2016,08,18,01,43,15.80
2016,08,18,01,44,15.80
2016,08,18,01,45,15.70
2016,08,18,01,46,15.70
2016,08,18,01,47,15.70
2016,08,18,01,48,15.70
2016,08,18,01,49,15.70
2016,08,18,01,50,15.70
2016,08,18,01,51,15.70
2016,08,18,01,52,15.70
2016,08,18,01,53,15.70
2016,08,18,01,54,15.70
2016,08,18,01,55,15.70
2016,08,18,01,56,15.70
2016,08,18,01,57,15.70
2016,08,18,01,58,15.60
2016,08,18,01,59,15.70
2016,08,18,02,00,15.60
2016,08,18,02,01,15.60
2016,08,18,02,02,15.60
2016,08,18,02,03,15.60
2016,08,18,02,04,15.60
2016,08,18,02,05,15.60
2016,08,18,02,06,15.60
2016,08,18,02,07,15.60
2016,08,18,02,08,15.60
2016,08,18,02,09,15.60
2016,08,18,02,10,15.60
2016,08,18,02,11,15.60
2016,08,18,02,12,15.60
2016,08,18,02,13,15.60
2016,08,18,02,14,15.60
2016,08,18,02,15,15.60
2016,08,18,02,16,15.60
2016,08,18,02,17,15.60
2016,08,18,02,18,15.60
2016,08,18,02,19,15.60
2016,08,18,02,20,15.50
2016,08,18,02,21,15.50
2016,08,18,02,22,15.50
2016,08,18,02,23,15.50
2016,08,18,02,24,15.50
2016,08,18,02,25,15.50
2016,08,18,02,26,15.60
2016,08,18,02,27,15.60
2016,08,18,02,28,15.60
2016,08,18,02,29,15.60
2016,08,18,02,30,15.60
2016,08,18,02,31,15.60
2016,08,18,02,32,15.60
2016,08,18,02,33,15.60
2016,08,18,02,34,15.60
2016,08,18,02,35,15.60
2016,08,18,02,36,15.60
2016,08,18,02,37,15.60
2016,08,18,02,38,15.60
2016,08,18,02,39,15.50
2016,08,18,02,40,15.50
2016,08,18,02,41,15.50
2016,08,18,02,42,15.50
2016,08,18,02,43,15.50
2016,08,18,02,44,15.50
2016,08,18,02,45,15.60
2016,08,18,02,46,15.60
2016,08,18,02,47,15.60
2016,08,18,02,48,15.60
2016,08,18,02,49,15.50
2016,08,18,02,50,15.50
2016,08,18,02,51,15.50
2016,08,18,02,52,15.50
2016,08,18,02,53,15.50
2016,08,18,02,54,15.50
2016,08,18,02,55,15.40
2016,08,18,02,56,15.40
2016,08,18,02,57,15.40
2016,08,18,02,58,15.40
2016,08,18,02,59,15.40
2016,08,18,03,00,15.40
2016,08,18,03,01,15.40
2016,08,18,03,02,15.30
2016,08,18,03,03,15.30
2016,08,18,03,04,15.30
2016,08,18,03,05,15.30
2016,08,18,03,06,15.30
2016,08,18,03,07,15.30
2016,08,18,03,08,15.30
2016,08,18,03,09,15.30
2016,08,18,03,10,15.30
2016,08,18,03,11,15.30
2016,08,18,03,12,15.30
2016,08,18,03,13,15.30
2016,08,18,03,14,15.30
2016,08,18,03,15,15.30
2016,08,18,03,16,15.20
2016,08,18,03,17,15.20
2016,08,18,03,18,15.20
2016,08,18,03,19,15.20
2016,08,18,03,20,15.20
2016,08,18,03,21,15.20
2016,08,18,03,22,15.20
2016,08,18,03,23,15.20
2016,08,18,03,24,15.10
2016,08,18,03,25,15.10
2016,08,18,03,26,15.10
2016,08,18,03,27,15.10
2016,08,18,03,28,15.10
2016,08,18,03,29,15.00
2016,08,18,03,30,15.00
2016,08,18,03,31,15.00
2016,08,18,03,32,15.00
2016,08,18,03,33,15.00
2016,08,18,03,34,15.00
2016,08,18,03,35,15.00
2016,08,18,03,36,15.00
2016,08,18,03,37,15.00
2016,08,18,03,38,15.00
2016,08,18,03,39,15.00
2016,08,18,03,40,15.00
2016,08,18,03,41,15.00
2016,08,18,03,42,15.00
2016,08,18,03,43,15.00
2016,08,18,03,44,15.00
2016,08,18,03,45,15.00
2016,08,18,03,46,15.00
2016,08,18,03,47,15.00
2016,08,18,03,48,15.00
2016,08,18,03,49,15.00
2016,08,18,03,50,15.00
2016,08,18,03,51,15.00
2016,08,18,03,52,15.00
2016,08,18,03,53,15.00
2016,08,18,03,54,15.00
2016,08,18,03,55,14.90
2016,08,18,03,56,14.90
2016,08,18,03,57,14.90
2016,08,18,03,58,14.90
2016,08,18,03,59,14.80
2016,08,18,04,00,14.80
2016,08,18,04,01,14.80
2016,08,18,04,02,14.80
2016,08,18,04,03,14.80
2016,08,18,04,04,14.80
2016,08,18,04,05,14.80
2016,08,18,04,06,14.80
2016,08,18,04,07,14.80
2016,08,18,04,08,14.80
2016,08,18,04,09,14.80
2016,08,18,04,10,14.80
2016,08,18,04,11,14.80
2016,08,18,04,12,14.70
2016,08,18,04,13,14.70
2016,08,18,04,14,14.70
2016,08,18,04,15,14.70
2016,08,18,04,16,14.70
2016,08,18,04,17,14.70
2016,08,18,04,18,14.70
2016,08,18,04,19,14.70
2016,08,18,04,20,14.70
2016,08,18,04,21,14.70
2016,08,18,04,22,14.70
2016,08,18,04,23,14.70
2016,08,18,04,24,14.70
2016,08,18,04,25,14.70
2016,08,18,04,26,14.70
2016,08,18,04,27,14.70
2016,08,18,04,28,14.70
2016,08,18,04,29,14.60
2016,08,18,04,30,14.60
2016,08,18,04,31,14.60
2016,08,18,04,32,14.60
2016,08,18,04,33,14.60
2016,08,18,04,34,14.60
2016,08,18,04,35,14.60
2016,08,18,04,36,14.60
2016,08,18,04,37,14.60
2016,08,18,04,38,14.60
2016,08,18,04,39,14.60
2016,08,18,04,40,14.50
2016,08,18,04,41,14.50
2016,08,18,04,42,14.50
2016,08,18,04,43,14.50
2016,08,18,04,44,14.50
2016,08,18,04,45,14.50
2016,08,18,04,46,14.50
2016,08,18,04,47,14.40
2016,08,18,04,48,14.40
2016,08,18,04,49,14.40
2016,08,18,04,50,14.40
2016,08,18,04,51,14.40
2016,08,18,04,52,14.40
2016,08,18,04,53,14.40
2016,08,18,04,54,14.40
2016,08,18,04,55,14.40
2016,08,18,04,56,14.30
2016,08,18,04,57,14.30
2016,08,18,04,58,14.30
2016,08,18,04,59,14.30
2016,08,18,05,00,14.30
2016,08,18,05,01,14.30
2016,08,18,05,02,14.30
2016,08,18,05,03,14.30
2016,08,18,05,04,14.30
2016,08,18,05,05,14.30
2016,08,18,05,06,14.30
2016,08,18,05,07,14.30
2016,08,18,05,08,14.20
2016,08,18,05,09,14.20
2016,08,18,05,10,14.20
2016,08,18,05,11,14.20
2016,08,18,05,12,14.20
2016,08,18,05,13,14.20
2016,08,18,05,14,14.20
2016,08,18,05,15,14.20
2016,08,18,05,16,14.10
2016,08,18,05,17,14.10
2016,08,18,05,18,14.10
2016,08,18,05,19,14.10
2016,08,18,05,20,14.10
2016,08,18,05,21,14.10
2016,08,18,05,22,14.10
2016,08,18,05,23,14.10
2016,08,18,05,24,14.10
2016,08,18,05,25,14.10
2016,08,18,05,26,14.10
2016,08,18,05,27,14.10
2016,08,18,05,28,14.10
2016,08,18,05,29,14.10
2016,08,18,05,30,14.10
2016,08,18,05,31,14.00
2016,08,18,05,32,14.00
2016,08,18,05,33,14.00
2016,08,18,05,34,14.00
2016,08,18,05,35,14.00
2016,08,18,05,36,13.90
2016,08,18,05,37,13.90
2016,08,18,05,38,13.90
2016,08,18,05,39,13.90
2016,08,18,05,40,13.90
2016,08,18,05,41,13.90
2016,08,18,05,42,13.90
2016,08,18,05,43,13.90
2016,08,18,05,44,13.90
2016,08,18,05,45,13.90
2016,08,18,05,46,13.90
2016,08,18,05,47,13.90
2016,08,18,05,48,13.90
2016,08,18,05,49,13.80
2016,08,18,05,50,13.80
2016,08,18,05,51,13.80
2016,08,18,05,52,13.80
2016,08,18,05,53,13.80
2016,08,18,05,54,13.80
2016,08,18,05,55,13.80
2016,08,18,05,56,13.80
2016,08,18,05,57,13.80
2016,08,18,05,58,13.80
2016,08,18,05,59,13.80
2016,08,18,06,00,13.80
2016,08,18,06,01,13.80
2016,08,18,06,02,13.70
2016,08,18,06,03,13.70
2016,08,18,06,04,13.70
2016,08,18,06,05,13.70
2016,08,18,06,06,13.70
2016,08,18,06,07,13.70
2016,08,18,06,08,13.70
2016,08,18,06,09,13.70
2016,08,18,06,10,13.70
2016,08,18,06,11,13.70
2016,08,18,06,12,13.70
2016,08,18,06,13,13.70
2016,08,18,06,14,13.70
2016,08,18,06,15,13.70
2016,08,18,06,16,13.70
2016,08,18,06,17,13.70
2016,08,18,06,18,13.70
2016,08,18,06,19,13.70
2016,08,18,06,20,13.70
2016,08,18,06,21,13.70
2016,08,18,06,22,13.70
2016,08,18,06,23,13.70
2016,08,18,06,24,13.70
2016,08,18,06,25,13.70
2016,08,18,06,26,13.60
2016,08,18,06,27,13.60
2016,08,18,06,28,13.60
2016,08,18,06,29,13.60
2016,08,18,06,30,13.60
2016,08,18,06,31,13.60
2016,08,18,06,32,13.60
2016,08,18,06,33,13.60
2016,08,18,06,34,13.60
2016,08,18,06,35,13.60
2016,08,18,06,36,13.60
2016,08,18,06,37,13.60
2016,08,18,06,38,13.60
2016,08,18,06,39,13.60
2016,08,18,06,40,13.60
2016,08,18,06,41,13.70
2016,08,18,06,42,13.70
2016,08,18,06,43,13.60
2016,08,18,06,44,13.60
2016,08,18,06,45,13.60
2016,08,18,06,46,13.60
2016,08,18,06,47,13.60
2016,08,18,06,48,13.60
2016,08,18,06,49,13.70
2016,08,18,06,50,13.70
2016,08,18,06,51,13.70
2016,08,18,06,52,13.70
2016,08,18,06,53,13.70
2016,08,18,06,54,13.70
2016,08,18,06,55,13.70
2016,08,18,06,56,13.70
2016,08,18,06,57,13.80
2016,08,18,06,58,13.80
2016,08,18,06,59,13.80
2016,08,18,07,00,13.80
2016,08,18,07,01,13.80
2016,08,18,07,02,13.80
2016,08,18,07,03,13.80
2016,08,18,07,04,13.90
2016,08,18,07,05,13.90
2016,08,18,07,06,13.90
2016,08,18,07,07,13.90
2016,08,18,07,08,13.90
2016,08,18,07,09,13.90
2016,08,18,07,10,13.90
2016,08,18,07,11,14.00
2016,08,18,07,12,14.00
2016,08,18,07,13,14.00
2016,08,18,07,14,14.00
2016,08,18,07,15,14.00
2016,08,18,07,16,14.10
2016,08,18,07,17,14.10
2016,08,18,07,18,14.10
2016,08,18,07,19,14.10
2016,08,18,07,20,14.10
2016,08,18,07,21,14.10
2016,08,18,07,22,14.20
2016,08,18,07,23,14.20
2016,08,18,07,24,14.20
2016,08,18,07,25,14.30
2016,08,18,07,26,14.30
2016,08,18,07,27,14.40
2016,08,18,07,28,14.50
2016,08,18,07,29,14.60
2016,08,18,07,30,14.70
2016,08,18,07,31,14.80
2016,08,18,07,32,14.90
2016,08,18,07,33,15.00
2016,08,18,07,34,15.00
2016,08,18,07,35,15.20
2016,08,18,07,36,15.30
2016,08,18,07,37,15.40
2016,08,18,07,38,15.50
2016,08,18,07,39,15.60
2016,08,18,07,40,15.70
2016,08,18,07,41,15.80
2016,08,18,07,42,15.90
2016,08,18,07,43,16.00
2016,08,18,07,44,16.20
2016,08,18,07,45,16.20
2016,08,18,07,46,16.30
2016,08,18,07,47,16.40
2016,08,18,07,48,16.50
2016,08,18,07,49,16.60
2016,08,18,07,50,16.70
2016,08,18,07,51,16.90
2016,08,18,07,52,17.00
2016,08,18,07,53,17.10
2016,08,18,07,54,17.10
2016,08,18,07,55,17.20
2016,08,18,07,56,17.30
2016,08,18,07,57,17.50
2016,08,18,07,58,17.60
2016,08,18,07,59,17.80
2016,08,18,08,00,17.90
2016,08,18,08,01,18.00
2016,08,18,08,02,18.00
2016,08,18,08,03,18.20
2016,08,18,08,04,18.30
2016,08,18,08,05,18.40
2016,08,18,08,06,18.50
2016,08,18,08,07,18.60
2016,08,18,08,08,18.70
2016,08,18,08,09,18.80
2016,08,18,08,10,18.80
2016,08,18,08,11,18.90
2016,08,18,08,12,19.00
2016,08,18,08,13,19.10
2016,08,18,08,14,19.20
2016,08,18,08,15,19.30
2016,08,18,08,16,19.30
2016,08,18,08,17,19.40
2016,08,18,08,18,19.50
2016,08,18,08,19,19.50
2016,08,18,08,20,19.60
2016,08,18,08,21,19.70
2016,08,18,08,22,19.70
2016,08,18,08,23,19.80
2016,08,18,08,24,19.90
2016,08,18,08,25,20.00
2016,08,18,08,26,20.00
2016,08,18,08,27,20.10
2016,08,18,08,28,20.20
2016,08,18,08,29,20.20
2016,08,18,08,30,20.20
2016,08,18,08,31,20.20
2016,08,18,08,32,20.30
2016,08,18,08,33,20.30
2016,08,18,08,34,20.30
2016,08,18,08,35,20.40
2016,08,18,08,36,20.40
2016,08,18,08,37,20.40
2016,08,18,08,38,20.50
2016,08,18,08,39,20.50
2016,08,18,08,40,20.60
2016,08,18,08,41,20.60
2016,08,18,08,42,20.60
2016,08,18,08,43,20.70
2016,08,18,08,44,20.70
2016,08,18,08,45,20.80
2016,08,18,08,46,20.90
2016,08,18,08,47,20.90
2016,08,18,08,48,21.00
2016,08,18,08,49,21.10
2016,08,18,08,50,21.20
2016,08,18,08,51,21.30
2016,08,18,08,52,21.30
2016,08,18,08,53,21.30
2016,08,18,08,54,21.30
2016,08,18,08,55,21.40
2016,08,18,08,56,21.40
2016,08,18,08,57,21.40
2016,08,18,08,58,21.40
2016,08,18,08,59,21.50
2016,08,18,09,00,21.50
2016,08,18,09,01,21.60
2016,08,18,09,02,21.60
2016,08,18,09,03,21.70
2016,08,18,09,04,21.80
2016,08,18,09,05,21.90
2016,08,18,09,06,22.00
2016,08,18,09,07,22.10
2016,08,18,09,08,22.20
2016,08,18,09,09,22.20
2016,08,18,09,10,22.30
2016,08,18,09,11,22.40
2016,08,18,09,12,22.40
2016,08,18,09,13,22.40
2016,08,18,09,14,22.40
2016,08,18,09,15,22.50
2016,08,18,09,16,22.60
2016,08,18,09,17,22.70
2016,08,18,09,18,22.70
2016,08,18,09,19,22.80
2016,08,18,09,20,22.80
2016,08,18,09,21,22.80
2016,08,18,09,22,22.90
2016,08,18,09,23,22.90
2016,08,18,09,24,23.00
2016,08,18,09,25,23.00
2016,08,18,09,26,23.00
2016,08,18,09,27,23.10
2016,08,18,09,28,23.20
2016,08,18,09,29,23.20
2016,08,18,09,30,23.20
2016,08,18,09,31,23.30
2016,08,18,09,32,23.30
2016,08,18,09,33,23.40
2016,08,18,09,34,23.50
2016,08,18,09,35,23.60
2016,08,18,09,36,23.70
2016,08,18,09,37,23.80
2016,08,18,09,38,23.90
2016,08,18,09,39,24.00
2016,08,18,09,40,24.00
2016,08,18,09,41,24.10
2016,08,18,09,42,24.10
2016,08,18,09,43,24.10
2016,08,18,09,44,24.20
2016,08,18,09,45,24.20
2016,08,18,09,46,24.20
2016,08,18,09,47,24.30
2016,08,18,09,48,24.30
2016,08,18,09,49,24.40
2016,08,18,09,50,24.40
2016,08,18,09,51,24.50
2016,08,18,09,52,24.60
2016,08,18,09,53,24.70
2016,08,18,09,54,24.80
2016,08,18,09,55,24.90
2016,08,18,09,56,25.00
2016,08,18,09,57,25.10
2016,08,18,09,58,25.10
2016,08,18,09,59,25.20
2016,08,18,10,00,25.30
2016,08,18,10,01,25.30
2016,08,18,10,02,25.40
2016,08,18,10,03,25.50
2016,08,18,10,04,25.60
2016,08,18,10,05,25.70
2016,08,18,10,06,25.60
2016,08,18,10,07,25.60
2016,08,18,10,08,25.70
2016,08,18,10,09,25.70
2016,08,18,10,10,25.80
2016,08,18,10,11,25.90
2016,08,18,10,12,25.90
2016,08,18,10,13,26.00
2016,08,18,10,14,26.20
2016,08,18,10,15,26.20
2016,08,18,10,16,26.30
2016,08,18,10,17,26.30
2016,08,18,10,18,26.20
2016,08,18,10,19,26.20
2016,08,18,10,20,26.10
2016,08,18,10,21,26.10
2016,08,18,10,22,26.10
2016,08,18,10,23,26.10
2016,08,18,10,24,26.20
2016,08,18,10,25,26.30
2016,08,18,10,26,26.40
2016,08,18,10,27,26.50
2016,08,18,10,28,26.50
2016,08,18,10,29,26.60
2016,08,18,10,30,26.70
2016,08,18,10,31,26.70
2016,08,18,10,32,26.70
2016,08,18,10,33,26.70
2016,08,18,10,34,26.70
2016,08,18,10,35,26.80
2016,08,18,10,36,26.80
2016,08,18,10,37,26.70
2016,08,18,10,38,26.50
2016,08,18,10,39,26.40
2016,08,18,10,40,26.40
2016,08,18,10,41,26.30
2016,08,18,10,42,26.10
2016,08,18,10,43,26.10
2016,08,18,10,44,26.00
2016,08,18,10,45,26.00
2016,08,18,10,46,26.00
2016,08,18,10,47,26.10
2016,08,18,10,48,26.20
2016,08,18,10,49,26.20
2016,08,18,10,50,26.30
2016,08,18,10,51,26.40
2016,08,18,10,52,26.60
2016,08,18,10,53,26.70
2016,08,18,10,54,26.80
2016,08,18,10,55,26.90
2016,08,18,10,56,26.90
2016,08,18,10,57,26.90
2016,08,18,10,58,26.90
2016,08,18,10,59,27.00
2016,08,18,11,00,27.00
2016,08,18,11,01,27.10
2016,08,18,11,02,27.00
2016,08,18,11,03,27.00
2016,08,18,11,04,27.10
2016,08,18,11,05,27.00
2016,08,18,11,06,27.00
2016,08,18,11,07,27.00
2016,08,18,11,08,27.10
2016,08,18,11,09,27.10
2016,08,18,11,10,27.30
2016,08,18,11,11,27.40
2016,08,18,11,12,27.60
2016,08,18,11,13,27.70
2016,08,18,11,14,27.80
2016,08,18,11,15,27.90
2016,08,18,11,16,28.10
2016,08,18,11,17,28.30
2016,08,18,11,18,28.50
2016,08,18,11,19,28.60
2016,08,18,11,20,28.50
2016,08,18,11,21,28.50
2016,08,18,11,22,28.40
2016,08,18,11,23,28.40
2016,08,18,11,24,28.50
2016,08,18,11,25,28.60
2016,08,18,11,26,28.70
2016,08,18,11,27,28.80
2016,08,18,11,28,28.90
2016,08,18,11,29,29.00
2016,08,18,11,30,29.20
2016,08,18,11,31,29.30
2016,08,18,11,32,29.30
2016,08,18,11,33,29.40
2016,08,18,11,34,29.40
2016,08,18,11,35,29.50
2016,08,18,11,36,29.60
2016,08,18,11,37,29.70
2016,08,18,11,38,29.80
2016,08,18,11,39,29.70
2016,08,18,11,40,29.60
2016,08,18,11,41,29.60
2016,08,18,11,42,29.60
2016,08,18,11,43,29.50
2016,08,18,11,44,29.60
2016,08,18,11,45,29.60
2016,08,18,11,46,29.70
2016,08,18,11,47,29.70
2016,08,18,11,48,29.70
2016,08,18,11,49,29.80
2016,08,18,11,50,29.90
2016,08,18,11,51,30.00
2016,08,18,11,52,30.20
2016,08,18,11,53,30.30
2016,08,18,11,54,30.40
2016,08,18,11,55,30.40
2016,08,18,11,56,30.50
2016,08,18,11,57,30.60
2016,08,18,11,58,30.70
2016,08,18,11,59,30.80
2016,08,18,12,00,30.90
2016,08,18,12,01,30.90
2016,08,18,12,02,30.90
2016,08,18,12,03,31.00
2016,08,18,12,04,31.00
2016,08,18,12,05,30.90
2016,08,18,12,06,30.80
2016,08,18,12,07,30.70
2016,08,18,12,08,30.70
2016,08,18,12,09,30.60
2016,08,18,12,10,30.70
2016,08,18,12,11,30.70
2016,08,18,12,12,30.70
2016,08,18,12,13,30.70
2016,08,18,12,14,30.70
2016,08,18,12,15,30.80
2016,08,18,12,16,30.80
2016,08,18,12,17,30.70
2016,08,18,12,18,30.60
2016,08,18,12,19,30.40
2016,08,18,12,20,30.30
2016,08,18,12,21,30.30
2016,08,18,12,22,30.40
2016,08,18,12,23,30.40
2016,08,18,12,24,30.50
2016,08,18,12,25,30.60
2016,08,18,12,26,30.60
2016,08,18,12,27,30.60
2016,08,18,12,28,30.50
2016,08,18,12,29,30.60
2016,08,18,12,30,30.50
2016,08,18,12,31,30.40
2016,08,18,12,32,30.40
2016,08,18,12,33,30.30
2016,08,18,12,34,30.30
2016,08,18,12,35,30.40
2016,08,18,12,36,30.40
2016,08,18,12,37,30.50
2016,08,18,12,38,30.50
2016,08,18,12,39,30.30
2016,08,18,12,40,30.20
2016,08,18,12,41,30.10
2016,08,18,12,42,30.00
2016,08,18,12,43,30.10
2016,08,18,12,44,30.20
2016,08,18,12,45,30.30
2016,08,18,12,46,30.30
2016,08,18,12,47,30.50
2016,08,18,12,48,30.60
2016,08,18,12,49,30.60
2016,08,18,12,50,30.70
2016,08,18,12,51,30.80
2016,08,18,12,52,30.80
2016,08,18,12,53,30.70
2016,08,18,12,54,30.60
2016,08,18,12,55,30.60
2016,08,18,12,56,30.60
2016,08,18,12,57,30.50
2016,08,18,12,58,30.40
2016,08,18,12,59,30.50
2016,08,18,13,00,30.60
2016,08,18,13,01,30.60
2016,08,18,13,02,30.70
2016,08,18,13,03,30.80
2016,08,18,13,04,30.90
2016,08,18,13,05,30.80
2016,08,18,13,06,30.80
2016,08,18,13,07,30.70
2016,08,18,13,08,30.80
2016,08,18,13,09,30.90
2016,08,18,13,10,31.00
2016,08,18,13,11,31.10
2016,08,18,13,12,31.20
2016,08,18,13,13,31.10
2016,08,18,13,14,31.10
2016,08,18,13,15,31.10
2016,08,18,13,16,31.00
2016,08,18,13,17,31.00
2016,08,18,13,18,31.00
2016,08,18,13,19,31.10
2016,08,18,13,20,31.20
2016,08,18,13,21,31.30
2016,08,18,13,22,31.40
2016,08,18,13,23,31.40
2016,08,18,13,24,31.50
2016,08,18,13,25,31.50
2016,08,18,13,26,31.60
2016,08,18,13,27,31.70
2016,08,18,13,28,31.50
2016,08,18,13,29,31.30
2016,08,18,13,30,31.20
2016,08,18,13,31,31.00
2016,08,18,13,32,30.80
2016,08,18,13,33,30.70
2016,08,18,13,34,30.50
2016,08,18,13,35,30.10
2016,08,18,13,36,30.00
2016,08,18,13,37,29.90
2016,08,18,13,38,29.80
2016,08,18,13,39,29.60
2016,08,18,13,40,29.40
2016,08,18,13,41,29.30
2016,08,18,13,42,29.30
2016,08,18,13,43,29.30
2016,08,18,13,44,29.40
2016,08,18,13,45,29.50
2016,08,18,13,46,29.40
2016,08,18,13,47,29.40
2016,08,18,13,48,29.20
2016,08,18,13,49,29.10
2016,08,18,13,50,29.00
2016,08,18,13,51,28.90
2016,08,18,13,52,28.90
2016,08,18,13,53,29.00
2016,08,18,13,54,29.10
2016,08,18,13,55,29.20
2016,08,18,13,56,29.30
2016,08,18,13,57,29.50
2016,08,18,13,58,29.60
2016,08,18,13,59,29.70
2016,08,18,14,00,29.80
2016,08,18,14,01,30.00
2016,08,18,14,02,30.10
2016,08,18,14,03,30.20
2016,08,18,14,04,30.30
2016,08,18,14,05,30.40
2016,08,18,14,06,30.50
2016,08,18,14,07,30.50
2016,08,18,14,08,30.50
2016,08,18,14,09,30.50
2016,08,18,14,10,30.60
2016,08,18,14,11,30.60
2016,08,18,14,12,30.60
2016,08,18,14,13,30.60
2016,08,18,14,14,30.60
2016,08,18,14,15,30.70
2016,08,18,14,16,30.80
2016,08,18,14,17,30.80
2016,08,18,14,18,30.90
2016,08,18,14,19,31.00
2016,08,18,14,20,31.00
2016,08,18,14,21,31.20
2016,08,18,14,22,31.30
2016,08,18,14,23,31.40
2016,08,18,14,24,31.50
2016,08,18,14,25,31.60
2016,08,18,14,26,31.70
2016,08,18,14,27,31.60
2016,08,18,14,28,31.60
2016,08,18,14,29,31.60
2016,08,18,14,30,31.50
2016,08,18,14,31,31.40
2016,08,18,14,32,31.30
2016,08,18,14,33,31.10
2016,08,18,14,34,31.10
2016,08,18,14,35,31.00
2016,08,18,14,36,31.20
2016,08,18,14,37,31.30
2016,08,18,14,38,31.40
2016,08,18,14,39,31.40
2016,08,18,14,40,31.40
2016,08,18,14,41,31.50
2016,08,18,14,42,31.60
2016,08,18,14,43,31.70
2016,08,18,14,44,31.70
2016,08,18,14,45,31.70
2016,08,18,14,46,31.70
2016,08,18,14,47,31.80
2016,08,18,14,48,31.90
2016,08,18,14,49,32.10
2016,08,18,14,50,32.20
2016,08,18,14,51,32.30
2016,08,18,14,52,32.40
2016,08,18,14,53,32.50
2016,08,18,14,54,32.50
2016,08,18,14,55,32.50
2016,08,18,14,56,32.50
2016,08,18,14,57,32.50
2016,08,18,14,58,32.60
2016,08,18,14,59,32.70
2016,08,18,15,00,32.50
2016,08,18,15,01,32.30
2016,08,18,15,02,32.10
2016,08,18,15,03,31.90
2016,08,18,15,04,31.80
2016,08,18,15,05,31.70
2016,08,18,15,06,31.70
2016,08,18,15,07,31.70
2016,08,18,15,08,31.70
2016,08,18,15,09,31.80
2016,08,18,15,10,31.80
2016,08,18,15,11,31.70
2016,08,18,15,12,31.60
2016,08,18,15,13,31.50
2016,08,18,15,14,31.50
2016,08,18,15,15,31.60
2016,08,18,15,16,31.70
2016,08,18,15,17,31.70
2016,08,18,15,18,31.80
2016,08,18,15,19,31.80
2016,08,18,15,20,31.80
2016,08,18,15,21,31.80
2016,08,18,15,22,31.80
2016,08,18,15,23,31.70
2016,08,18,15,24,31.60
2016,08,18,15,25,31.50
2016,08,18,15,26,31.40
2016,08,18,15,27,31.30
2016,08,18,15,28,31.30
2016,08,18,15,29,31.30
2016,08,18,15,30,31.20
2016,08,18,15,31,31.10
2016,08,18,15,32,31.10
2016,08,18,15,33,31.10
2016,08,18,15,34,31.10
2016,08,18,15,35,31.00
2016,08,18,15,36,31.10
2016,08,18,15,37,31.20
2016,08,18,15,38,31.30
2016,08,18,15,39,31.30
2016,08,18,15,40,31.40
2016,08,18,15,41,31.50
2016,08,18,15,42,31.60
2016,08,18,15,43,31.60
2016,08,18,15,44,31.60
2016,08,18,15,45,31.70
2016,08,18,15,46,31.60
2016,08,18,15,47,31.60
2016,08,18,15,48,31.60
2016,08,18,15,49,31.70
2016,08,18,15,50,31.60
2016,08,18,15,51,31.50
2016,08,18,15,52,31.50
2016,08,18,15,53,31.60
2016,08,18,15,54,31.60
2016,08,18,15,55,31.70
2016,08,18,15,56,31.80
2016,08,18,15,57,31.90
2016,08,18,15,58,32.10
2016,08,18,15,59,32.20
2016,08,18,16,00,32.30
2016,08,18,16,01,32.50
2016,08,18,16,02,32.60
2016,08,18,16,03,32.70
2016,08,18,16,04,32.80
2016,08,18,16,05,32.80
2016,08,18,16,06,32.80
2016,08,18,16,07,32.80
2016,08,18,16,08,32.80
2016,08,18,16,09,32.80
2016,08,18,16,10,32.80
2016,08,18,16,11,32.80
2016,08,18,16,12,32.70
2016,08,18,16,13,32.70
2016,08,18,16,14,32.70
2016,08,18,16,15,32.70
2016,08,18,16,16,32.80
2016,08,18,16,17,32.80
2016,08,18,16,18,32.90
2016,08,18,16,19,32.90
2016,08,18,16,20,32.80
2016,08,18,16,21,32.80
2016,08,18,16,22,32.80
2016,08,18,16,23,32.70
2016,08,18,16,24,32.70
2016,08,18,16,25,32.70
2016,08,18,16,26,32.80
2016,08,18,16,27,32.70
2016,08,18,16,28,32.70
2016,08,18,16,29,32.70
2016,08,18,16,30,32.70
2016,08,18,16,31,32.80
2016,08,18,16,32,32.80
2016,08,18,16,33,32.70
2016,08,18,16,34,32.70
2016,08,18,16,35,32.70
2016,08,18,16,36,32.60
2016,08,18,16,37,32.60
2016,08,18,16,38,32.60
2016,08,18,16,39,32.70
2016,08,18,16,40,32.80
2016,08,18,16,41,32.90
2016,08,18,16,42,33.00
2016,08,18,16,43,33.20
2016,08,18,16,44,33.30
2016,08,18,16,45,33.40
2016,08,18,16,46,33.60
2016,08,18,16,47,33.70
2016,08,18,16,48,33.80
2016,08,18,16,49,33.90
2016,08,18,16,50,33.90
2016,08,18,16,51,34.00
2016,08,18,16,52,34.00
2016,08,18,16,53,34.00
2016,08,18,16,54,34.00
2016,08,18,16,55,34.10
2016,08,18,16,56,34.10
2016,08,18,16,57,34.10
2016,08,18,16,58,34.10
2016,08,18,16,59,34.10
2016,08,18,17,00,34.10
2016,08,18,17,01,34.10
2016,08,18,17,02,34.00
2016,08,18,17,03,34.00
2016,08,18,17,04,34.00
2016,08,18,17,05,34.00
2016,08,18,17,06,33.90
2016,08,18,17,07,33.80
2016,08,18,17,08,33.80
2016,08,18,17,09,33.80
2016,08,18,17,10,33.90
2016,08,18,17,11,33.90
2016,08,18,17,12,33.90
2016,08,18,17,13,33.90
2016,08,18,17,14,33.90
2016,08,18,17,15,33.90
2016,08,18,17,16,33.90
2016,08,18,17,17,34.00
2016,08,18,17,18,34.00
2016,08,18,17,19,34.10